| time (UTC) | temp C | wind direction | speed KPH | gust KPH | rain 1hr cm | rain 24hr cm | rain mn cm | humidity % | barometer mb |
| 20260505025042 | 17 | 205 | 3.2 | 6.4 | 0.00 | 0.33 | 0.08 | 60 | 1024.1 |
| 20260505024019 | 17 | 241 | 3.2 | 11.3 | 0.00 | 0.33 | 0.08 | 62 | 1024.2 |
| 20260505023056 | 17 | 262 | 1.6 | 4.8 | 0.00 | 0.33 | 0.08 | 63 | 1024.2 |
| 20260505022032 | 16 | 302 | 1.6 | 3.2 | 0.00 | 0.33 | 0.08 | 65 | 1024.3 |
| 20260505021028 | 17 | 209 | 1.6 | 4.8 | 0.00 | 0.33 | 0.08 | 61 | 1024.3 |
| 20260505020025 | 17 | 199 | 0.0 | 1.6 | 0.00 | 0.33 | 0.08 | 60 | 1024.3 |
| 20260505015021 | 17 | 234 | 1.6 | 4.8 | 0.00 | 0.33 | 0.08 | 62 | 1024.4 |
| 20260505014017 | 17 | 296 | 1.6 | 3.2 | 0.00 | 0.33 | 0.08 | 64 | 1024.5 |
| 20260505013034 | 16 | 206 | 1.6 | 9.7 | 0.00 | 0.33 | 0.08 | 65 | 1024.4 |
| 20260505012031 | 16 | 146 | 0.0 | 3.2 | 0.00 | 0.33 | 0.08 | 71 | 1024.3 |
| 20260505011027 | 15 | 283 | 0.0 | 1.6 | 0.00 | 0.33 | 0.08 | 74 | 1024.3 |
| 20260505010024 | 15 | 282 | 0.0 | 3.2 | 0.00 | 0.33 | 0.08 | 74 | 1024.1 |
| 20260505005041 | 15 | 217 | 0.0 | 1.6 | 0.00 | 0.33 | 0.08 | 75 | 1024.0 |
| 20260505004033 | 15 | 255 | 0.0 | 1.6 | 0.00 | 0.33 | 0.08 | 79 | 1024.0 |
| 20260505003034 | 15 | 207 | 1.6 | 1.6 | 0.00 | 0.33 | 0.08 | 84 | 1023.8 |
| 20260505002030 | 15 | 321 | 0.0 | 1.6 | 0.00 | 0.33 | 0.08 | 89 | 1023.9 |
| 20260505001026 | 14 | 213 | 0.0 | 3.2 | 0.00 | 0.33 | 0.08 | 92 | 1023.8 |
| 20260505000023 | 14 | 214 | 1.6 | 3.2 | 0.00 | 0.33 | 0.08 | 95 | 1023.7 |
| 20260504235019 | 14 | 203 | 0.0 | 1.6 | 0.00 | 0.33 | 0.08 | 96 | 1023.7 |
| 20260504234036 | 14 | 236 | 0.0 | 1.6 | 0.00 | 0.33 | 0.08 | 96 | 1023.7 |
| 20260504233032 | 13 | 0.0 | 0.0 | 0.00 | 0.33 | 0.08 | 97 | 1023.6 | |
| 20260504232028 | 13 | 231 | 0.0 | 1.6 | 0.00 | 0.33 | 0.08 | 97 | 1023.6 |
| 20260504231025 | 13 | 200 | 0.0 | 1.6 | 0.00 | 0.33 | 0.08 | 97 | 1023.5 |
| 20260504230041 | 13 | 211 | 0.0 | 1.6 | 0.00 | 0.33 | 0.08 | 97 | 1023.4 |
| 20260504225017 | 13 | 189 | 0.0 | 1.6 | 0.00 | 0.33 | 0.08 | 97 | 1023.3 |
| 20260504224034 | 13 | 0.0 | 0.0 | 0.00 | 0.33 | 0.08 | 97 | 1023.3 | |
| 20260504223031 | 13 | 0.0 | 0.0 | 0.00 | 0.33 | 0.08 | 97 | 1023.1 | |
| 20260504222048 | 12 | 0.0 | 0.0 | 0.00 | 0.33 | 0.08 | 97 | 1023.0 | |
| 20260504221023 | 12 | 0.0 | 0.0 | 0.00 | 0.36 | 0.08 | 97 | 1023.0 | |
| 20260504220020 | 12 | 0.0 | 0.0 | 0.00 | 0.36 | 0.08 | 97 | 1022.9 | |
| 20260504215036 | 12 | 0.0 | 0.0 | 0.00 | 0.36 | 0.08 | 97 | 1022.8 | |
| 20260504214053 | 12 | 72 | 0.0 | 1.6 | 0.00 | 0.36 | 0.08 | 97 | 1022.8 |
| 20260504213029 | 12 | 0.0 | 0.0 | 0.00 | 0.36 | 0.08 | 97 | 1022.7 | |
| 20260504212047 | 12 | 0.0 | 0.0 | 0.00 | 0.36 | 0.08 | 97 | 1022.5 | |
| 20260504211022 | 11 | 0.0 | 0.0 | 0.00 | 0.36 | 0.08 | 97 | 1022.3 | |
| 20260504210018 | 11 | 0.0 | 0.0 | 0.00 | 0.36 | 0.08 | 97 | 1022.3 | |
| 20260504205035 | 11 | 0.0 | 0.0 | 0.00 | 0.38 | 0.08 | 97 | 1022.2 | |
| 20260504204031 | 11 | 0.0 | 0.0 | 0.00 | 0.38 | 0.08 | 97 | 1022.0 | |
| 20260504203028 | 11 | 0.0 | 0.0 | 0.00 | 0.38 | 0.08 | 97 | 1021.9 | |
| 20260504202024 | 11 | 0.0 | 0.0 | 0.00 | 0.38 | 0.08 | 97 | 1021.9 | |
| 20260504201023 | 11 | 0.0 | 0.0 | 0.00 | 0.38 | 0.08 | 97 | 1021.8 | |
| 20260504200017 | 11 | 0.0 | 0.0 | 0.00 | 0.38 | 0.08 | 97 | 1021.8 | |
| 20260504195034 | 11 | 0.0 | 0.0 | 0.00 | 0.38 | 0.08 | 97 | 1021.6 | |
| 20260504194031 | 11 | 0.0 | 0.0 | 0.00 | 0.38 | 0.08 | 97 | 1021.6 | |
| 20260504193026 | 11 | 0.0 | 0.0 | 0.00 | 0.38 | 0.08 | 97 | 1021.4 | |
| 20260504192023 | 11 | 0.0 | 0.0 | 0.00 | 0.38 | 0.08 | 97 | 1021.4 | |
| 20260504191019 | 10 | 0.0 | 0.0 | 0.00 | 0.38 | 0.08 | 97 | 1021.3 | |
| 20260504190036 | 10 | 0.0 | 0.0 | 0.00 | 0.43 | 0.08 | 96 | 1021.3 | |
| 20260504185032 | 11 | 0.0 | 0.0 | 0.00 | 0.43 | 0.08 | 96 | 1021.2 | |
| 20260504184028 | 11 | 0.0 | 0.0 | 0.00 | 0.43 | 0.08 | 96 | 1021.3 | |
| 20260504183024 | 11 | 0.0 | 0.0 | 0.00 | 0.43 | 0.08 | 96 | 1021.1 | |
| 20260504182041 | 11 | 74 | 0.0 | 1.6 | 0.03 | 0.43 | 0.08 | 96 | 1021.1 |
| 20260504181037 | 11 | 0.0 | 0.0 | 0.03 | 0.43 | 0.08 | 96 | 1021.0 | |
| 20260504180034 | 11 | 87 | 0.0 | 1.6 | 0.03 | 0.43 | 0.08 | 96 | 1021.0 |
| 20260504175031 | 11 | 0.0 | 0.0 | 0.03 | 0.43 | 0.08 | 96 | 1021.0 | |
| 20260504174027 | 12 | 0.0 | 0.0 | 0.03 | 0.43 | 0.08 | 96 | 1021.0 | |
| 20260504173044 | 12 | 84 | 0.0 | 1.6 | 0.03 | 0.43 | 0.08 | 96 | 1021.1 |
| 20260504172020 | 12 | 92 | 0.0 | 1.6 | 0.05 | 0.41 | 0.05 | 96 | 1021.2 |
| 20260504171016 | 11 | 85 | 1.6 | 3.2 | 0.05 | 0.41 | 0.05 | 96 | 1021.2 |
| 20260504151034 | 12 | 169 | 0.0 | 1.6 | 0.00 | 0.66 | 0.00 | 95 | 1021.2 |
| 20260504141032 | 11 | 0.0 | 0.0 | 0.00 | 0.79 | 0.79 | 95 | 1020.7 | |
| 20260504081022 | 16 | 203 | 4.8 | 12.9 | 0.00 | 1.32 | 0.53 | 68 | 1017.2 |
| 20260504070116 | 17 | 188 | 4.8 | 12.9 | 0.00 | 1.32 | 0.53 | 64 | 1016.6 |
| 20260504045030 | 20 | 198 | 8.0 | 16.1 | 0.00 | 1.47 | 0.53 | 54 | 1015.4 |
| 20260504044026 | 20 | 229 | 8.0 | 20.9 | 0.00 | 1.47 | 0.53 | 54 | 1015.2 |
| 20260504043022 | 20 | 203 | 6.4 | 17.7 | 0.00 | 1.47 | 0.53 | 56 | 1015.2 |
| 20260504042019 | 20 | 232 | 3.2 | 12.9 | 0.00 | 1.47 | 0.53 | 58 | 1015.1 |
| 20260504041036 | 20 | 204 | 9.7 | 17.7 | 0.00 | 1.47 | 0.53 | 57 | 1015.1 |
| 20260504040032 | 18 | 212 | 6.4 | 14.5 | 0.00 | 1.47 | 0.53 | 63 | 1015.2 |
| 20260504035028 | 18 | 205 | 8.0 | 17.7 | 0.00 | 1.47 | 0.53 | 60 | 1015.2 |
| 20260504034025 | 19 | 226 | 6.4 | 17.7 | 0.00 | 1.47 | 0.53 | 59 | 1015.1 |
| 20260504033021 | 18 | 228 | 4.8 | 17.7 | 0.00 | 1.47 | 0.53 | 61 | 1015.1 |
| 20260504032017 | 20 | 209 | 8.0 | 16.1 | 0.00 | 1.47 | 0.53 | 58 | 1015.1 |
| 20260504031034 | 18 | 208 | 11.3 | 24.1 | 0.00 | 1.47 | 0.53 | 63 | 1015.2 |
| 20260504030031 | 17 | 184 | 6.4 | 20.9 | 0.00 | 1.47 | 0.53 | 66 | 1015.3 |